Find Starlink 31351

NORAD ID: 58972 Int'l Des: 2024-031 Owner: SPXS Country: US Constellation: starlink operational
LEOCIRCULAR

当前视图

正在加载3D地球...

About Starlink 31351

Starlink 31351 (NORAD 58972) is a starlink constellation satellite (v2 mini) launched Feb 15, 2024 by SPXS of US. It operates in LEO, CIRCULAR orbit with a mass of 730.00 kg.

关于 Starlink 31351

正在加载描述...

即将过境

Passes for default location (London). Set your location on the main map for personalized predictions.

高度历史

Loading altitude history...

两行轨道根数

1 58972U 24031H 26170.31592713 .00000320 00000-0 22926-4 0 9998
2 58972 53.1598 184.5751 0001134 80.1249 279.9880 15.30195211132083
Epoch: Jun 19, 2026 • Age: 17 hours

当前状态

高度 493.8 km
速度 7.62 km/s
星下点 -51.62°S, 164.37°W
发射日期 Feb 15, 2024
运行时间 2.3 years
类型 internet

技术详情

分类 Payload
质量 730.00 kg
干质量 700.00 kg
总质量 730.00 kg
长度 0.30 m
直径 4.10 m
跨度 29.00 m
形状 Box + pan
制造商 SPXS
平台类型 Starlink V2M
阶段状态 In Orbit
所有者/国家 SPXS/US

Most Searched